#timestamp,LO_Frequency,Hit,StdDev 
1456812015.2,286047000.9,N
1456812035.0,286047001.5,N
1456812035.9,286047001.5,N
1456812055.8,286047003.7,N
1456812075.6,286047004.2,N
1456812095.4,286047003.8,N
1456812115.3,286047005.8,N
1456812135.1,286047003.6,N
1456812136.0,286047003.6,N
1456812155.8,286047005.2,N
1456812175.7,286047004.4,N
1456812195.5,286047003.7,N
1456812215.3,286047002.1,N
1456812235.1,286046999.7,N
1456812255.9,286047006.0,N
1456812275.7,286047005.2,N
1456812295.5,286047006.1,N
1456812315.4,286047008.5,Y
1456812335.2,286047008.3,P
1456812355.0,286047010.8,P
1456812355.9,286047010.8,P
1456812375.8,286047008.1,N
1456812395.6,286047009.9,Y
1456812415.4,286046998.4,P
1456812435.3,286047000.7,N
1456812455.1,286046999.7,N
1456812475.8,286047001.9,N
1456812495.7,286047000.2,N
1456812515.5,286047001.6,N
1456812535.3,286047001.1,N
1456812555.2,286046999.9,N
1456812575.9,286046998.8,N
1456812595.7,286047002.4,N
1456812615.6,286047000.6,N
1456812635.4,286047000.1,N
1456812655.2,286046998.6,N
1456812675.1,286046998.6,N
1456812676.0,286046998.6,N
1456812695.8,286046998.4,N
1456812715.6,286047000.9,N
1456812735.4,286047000.3,N
1456812755.3,286047000.8,N
1456812775.1,286046996.0,N
1456812795.8,286046995.8,N
1456812815.7,286046992.6,Y
1456812835.5,286046990.4,P
1456812855.3,286046990.6,N
1456812875.2,286046992.0,N
1456812895.9,286046991.8,N
1456812915.7,286046991.1,N
1456812935.6,286046988.3,Y
1456812955.4,286046992.9,P
1456812975.2,286046989.7,P
1456812995.1,286046986.8,P
1456812996.0,286046986.8,Y
1456813015.8,286046993.5,P
1456813035.6,286046991.9,P
1456813055.5,286046995.3,P
1456813075.3,286046995.0,N
1456813095.1,286047001.2,N
1456813115.9,286047000.1,N
1456813135.7,286046999.9,N
1456813155.5,286047001.6,N
1456813175.4,286047007.3,N
1456813195.2,286047008.2,N
1456813215.0,286047007.9,N
1456813215.9,286047007.9,N
1456813235.8,286047006.6,N
1456813255.6,286047006.9,N
1456813275.4,286047007.5,N
1456813295.2,286047006.5,N
1456813315.1,286047009.2,N
1456813316.0,286047009.2,N
1456813335.8,286047009.2,N
1456813355.6,286047006.2,N
1456813375.5,286047007.4,N
1456813395.3,286047007.2,N
1456813415.1,286047003.1,N
1456813435.9,286047008.2,N
1456813455.7,286047012.1,N
1456813475.5,286047011.7,N
1456813495.4,286047011.3,N
1456813515.2,286047013.9,N
1456813535.0,286047012.8,N
1456813535.9,286047012.8,N
1456813555.8,286047012.3,N
1456813575.6,286047007.9,N
1456813595.4,286047009.0,N
1456813615.3,286047007.7,N
1456813635.1,286047007.8,N
1456813636.0,286047007.8,N
1456813655.8,286047003.2,N
1456813675.6,286047002.0,N
1456813695.5,286047000.8,N
1456813715.3,286047000.6,N
1456813735.1,286047000.7,N
1456813755.9,286047001.1,N
1456813775.7,286047001.1,N
1456813795.5,286047000.2,N
1456813815.4,286047002.3,N
1456813835.2,286047004.3,N
1456813855.0,286047004.2,N
1456813855.9,286047004.2,N
1456813875.8,286047003.2,N
1456813895.6,286047007.0,N
1456813915.4,286047005.1,N
1456813935.3,286047007.0,N
1456813955.1,286047010.3,N
1456813956.0,286047010.3,N
1456813975.8,286047012.3,N
1456813995.7,286047009.6,N
1456814015.5,286047011.5,N
1456814035.3,286047009.8,N
1456814055.1,286047010.3,N
1456814075.9,286047011.7,N
1456814095.7,286047015.5,Y
1456814115.6,286047008.2,P
1456814135.4,286047008.6,P
1456814155.2,286047008.0,P
1456814175.1,286047008.5,Y
1456814176.0,286047008.5,P
1456814195.8,286046997.2,P
1456814215.6,286046995.7,N
1456814235.5,286046995.0,N
1456814255.3,286046996.4,N
1456814275.1,286046994.1,N
1456814295.8,286046993.5,N
1456814315.7,286046994.2,N
1456814335.5,286046990.6,N
1456814355.3,286046990.0,N
1456814375.2,286046985.3,N
1456814395.9,286046985.4,N
1456814415.7,286046987.4,N
1456814435.6,286046987.1,N
1456814455.4,286046986.7,N
1456814475.2,286046983.9,N
1456814495.1,286046984.7,N
1456814496.0,286046984.7,N
1456814515.8,286046983.1,N
1456814535.6,286046981.0,N
1456814555.5,286046984.4,N
1456814575.3,286046983.9,N
1456814595.1,286046984.4,N
1456814615.8,286046983.3,N
1456814635.7,286046981.1,N
1456814655.5,286046983.6,N
1456814675.3,286046980.8,N
1456814695.2,286046985.0,N
1456814715.9,286046983.2,N
1456814735.7,286046980.2,N
1456814755.6,286046982.9,N
1456814775.4,286046981.7,Y
1456814795.2,286046995.4,P
1456814815.1,286046993.5,N
1456814816.0,286046993.5,N
1456814835.8,286046992.0,N
1456814855.6,286046994.3,N
1456814875.5,286046994.0,N
1456814895.3,286046994.8,N
1456814915.1,286046994.2,N
1456814935.9,286046993.9,N
1456814955.7,286046992.1,Y
1456814975.5,286047001.2,P
1456814995.4,286046997.8,N
1456815015.2,286046997.6,N
1456815035.0,286046993.3,N
1456815035.9,286046993.3,N
1456815055.8,286046996.9,N
1456815075.6,286046998.0,N
1456815095.4,286046997.4,N
1456815115.2,286046993.7,N
1456815135.1,286046991.8,Y
1456815136.0,286046991.8,P
1456815155.8,286046998.6,N
1456815175.7,286046997.7,N
1456815195.5,286046991.8,Y
1456815215.3,286046995.6,P
1456815235.2,286046991.4,P
1456815255.9,286046987.7,P
1456815275.7,286046984.8,Y
1456815295.6,286046987.5,P
1456815315.4,286046986.0,P
1456815335.2,286046980.5,P
1456815355.1,286046977.8,Y
1456815356.0,286046977.8,P
1456815375.8,286046993.2,N
1456815395.6,286046992.7,N
1456815415.5,286046993.2,N
1456815435.3,286046991.3,N
1456815455.1,286046993.4,N
1456815475.8,286046995.7,N
1456815495.7,286046993.9,N
1456815515.5,286046997.0,N
1456815535.3,286046997.1,N
1456815555.2,286046996.8,N
1456815575.9,286047000.6,N
1456815595.7,286046997.3,N
